DF1NIF-13 Weather Reports


time (UTC)temp
F
wind
direction
speed
knots
gust
knots
rain 1hr
in
rain 24hr
in
rain mn
in
humidity
%
barometer
mb
20260905061028 57 1 4.3 7.8 0.00 0.00 0.00 87 973.3
20260905060553 58 1 0.9 7.8 0.00 0.00 0.00 87 973.4
20260905060138 58 228 0.9 4.3 0.00 0.00 0.00 83 973.1
20260905055639 57 228 0.9 4.3 0.00 0.00 0.00 83 973.2
20260905055148 57 228 1.7 4.3 0.00 0.00 0.00 83 973.3
20260905054713 57 228 0.9 4.3 0.00 0.00 0.00 83 973.0
20260905054253 57 258 0.9 6.1 0.00 0.00 0.00 83 973.1
20260905053810 57 182 0.9 6.1 0.00 0.00 0.00 83 973.2
20260905053339 57 182 0.9 6.1 0.00 0.00 0.00 83 973.1
20260905052843 56 182 2.6 2.6 0.00 0.00 0.00 83 973.2
20260905052351 56 182 2.6 6.1 0.00 0.00 0.00 83 973.0
20260905051918 56 182 0.9 4.3 0.00 0.00 0.00 83 973.0
20260905051423 56 336 0.9 6.1 0.00 0.00 0.00 83 973.1
20260905050958 56 336 0.9 6.1 0.00 0.00 0.00 83 973.0
20260905050523 56 336 0.0 6.1 0.00 0.00 0.00 83 972.9
20260905050053 56 351 0.9 0.9 0.00 0.00 0.00 83 972.6
20260905045623 56 351 0.0 0.9 0.00 0.00 0.00 83 972.8
20260905045158 56 188 0.0 0.9 0.00 0.00 0.00 83 972.5
20260905044738 57 188 0.0 0.9 0.00 0.00 0.00 83 972.5
20260905044253 57 188 0.9 2.6 0.00 0.00 0.00 83 972.4
20260905043803 57 188 0.9 2.6 0.00 0.00 0.00 83 972.3
20260905043333 57 188 0.0 0.9 0.00 0.00 0.00 86 972.4
20260905042908 57 188 0.0 0.9 0.00 0.00 0.00 86 972.3
20260905042443 57 188 0.0 0.9 0.00 0.00 0.00 86 972.2
20260905042018 56 188 0.9 0.9 0.00 0.00 0.00 86 972.1
20260905041533 55 188 0.0 0.9 0.00 0.00 0.00 86 972.1
20260905041128 55 188 0.0 0.9 0.00 0.00 0.00 86 972.1
20260905040643 55 188 0.0 2.6 0.00 0.00 0.00 85 972.1
20260905040153 55 188 1.7 0.0 0.00 0.00 0.00 85 971.9
20260905035743 55 188 1.7 0.0 0.00 0.00 0.00 85 971.8
20260905035313 55 217 0.9 0.0 0.00 0.00 0.00 85 971.8
20260905034843 55 217 0.9 0.9 0.00 0.00 0.00 85 971.9
20260905034418 55 217 0.0 0.9 0.00 0.00 0.00 84 971.9
20260905033938 55 236 2.6 2.6 0.00 0.00 0.00 84 971.7
20260905033513 55 236 0.9 2.6 0.00 0.00 0.00 84 972.0
20260905033033 55 105 0.0 2.6 0.00 0.00 0.00 84 971.8
20260905032558 55 105 0.9 2.6 0.00 0.00 0.00 84 971.7
20260905032113 55 151 2.6 2.6 0.00 0.00 0.00 84 971.9
20260905031638 55 151 0.0 0.0 0.00 0.00 0.00 72 971.7
20260905031208 55 153 0.0 0.0 0.00 0.00 0.00 72 972.0
20260905030808 55 335 0.0 0.9 0.00 0.00 0.00 72 972.0
20260905030323 55 335 0.0 4.3 0.00 0.00 0.00 72 971.9
20260905025908 55 152 1.7 4.3 0.00 0.00 0.00 72 972.0
20260905025433 55 152 2.6 6.1 0.00 0.00 0.00 72 971.8
20260905024958 55 152 0.0 0.0 0.00 0.00 0.00 72 971.7
20260905024518 56 152 0.0 0.9 0.00 0.00 0.00 72 971.4
20260905024039 56 230 0.9 0.9 0.00 0.00 0.00 72 971.6
20260905023608 56 186 0.9 0.9 0.00 0.00 0.00 72 971.5
20260905023133 56 170 0.9 0.9 0.00 0.00 0.00 72 971.5
20260905022708 56 170 0.0 0.9 0.00 0.00 0.00 72 971.6
20260905022306 56 170 0.0 0.9 0.00 0.00 0.00 72 971.6
20260905021838 56 358 0.0 0.9 0.00 0.00 0.00 72 971.7
20260905021408 56 358 1.7 0.9 0.00 0.00 0.00 72 972.0
20260905020948 57 358 0.9 2.6 0.00 0.00 0.00 72 972.1
20260905020458 57 358 0.9 0.9 0.00 0.00 0.00 72 971.6
20260905020013 59 358 0.9 6.1 0.00 0.00 0.00 72 971.6
20260905015533 59 349 0.0 6.1 0.00 0.00 0.00 63 971.6
20260905015100 60 327 5.2 6.1 0.00 0.00 0.00 63 971.7
20260905014638 60 7 4.3 11.3 0.00 0.00 0.00 66 971.5
20260905014223 60 345 1.7 12.2 0.00 0.00 0.00 66 971.5
20260905013753 61 271 1.7 4.3 0.00 0.00 0.00 66 971.4
20260905013328 61 271 0.9 0.9 0.00 0.00 0.00 66 971.5
20260905012848 61 271 1.7 4.3 0.00 0.00 0.00 66 971.6
20260905012418 61 271 3.5 4.3 0.00 0.00 0.00 66 971.5
20260905012013 61 271 3.5 2.6 0.00 0.00 0.00 66 971.5
20260905011523 61 271 0.0 0.9 0.00 0.00 0.00 66 970.9
20260905011043 61 271 0.0 0.9 0.00 0.00 0.00 66 971.0
20260905010623 61 271 0.0 2.6 0.00 0.00 0.00 66 970.7
20260905010138 61 271 0.0 0.9 0.00 0.00 0.00 66 970.8
20260905005713 61 271 0.0 0.9 0.00 0.00 0.00 65 970.7
20260905005253 61 271 0.0 0.9 0.00 0.00 0.00 65 970.7
20260905004838 61 271 0.0 2.6 0.00 0.00 0.00 65 970.5
20260905004428 61 271 0.0 0.9 0.00 0.00 0.00 65 970.7
20260905004013 61 262 0.0 0.9 0.00 0.00 0.00 66 970.5
20260905003548 61 262 0.9 2.6 0.00 0.00 0.00 66 970.6
20260905003123 61 262 0.0 0.0 0.00 0.00 0.00 66 970.3
20260905002659 61 262 0.9 2.6 0.00 0.00 0.00 66 970.4
20260905002258 61 262 0.0 2.6 0.00 0.00 0.00 66 970.3
20260905001843 61 237 0.0 2.6 0.00 0.00 0.00 66 970.0
20260905001402 61 215 0.0 2.6 0.00 0.00 0.00 66 970.3
20260905000933 61 216 0.9 2.6 0.00 0.00 0.00 66 970.2
20260905000458 61 216 0.9 2.6 0.00 0.00 0.00 66 970.4
20260905000023 61 345 0.9 0.9 0.00 0.00 0.00 66 970.3
20260904235551 61 345 0.0 4.3 0.00 0.00 0.00 66 970.3
20260904235128 61 345 3.5 6.1 0.00 0.00 0.00 71 970.4
20260904234708 63 353 8.7 9.6 0.00 0.00 0.00 71 970.3
20260904234233 65 329 6.1 6.1 0.00 0.00 0.00 71 970.2
20260904233819 65 348 2.6 4.3 0.00 0.00 0.00 71 969.9
20260904233408 65 352 6.1 12.2 0.00 0.00 0.00 71 969.9
20260904232938 65 352 7.0 9.6 0.00 0.00 0.00 71 970.2
20260904232459 65 0 7.0 17.4 0.00 0.00 0.00 71 970.1
20260904232033 65 0 7.0 12.2 0.00 0.00 0.00 71 970.2
20260904231613 65 0 8.7 7.8 0.00 0.00 0.00 71 969.9
20260904231143 65 346 8.7 7.8 0.00 0.00 0.00 71 970.0
20260904230708 65 310 8.7 7.8 0.00 0.00 0.00 71 969.6
20260904230233 65 310 8.7 13.9 0.00 0.00 0.00 69 969.9
20260904225753 66 310 8.7 21.7 0.00 0.00 0.00 69 970.1
20260904225333 66 310 5.2 21.7 0.00 0.00 0.00 69 970.0
20260904224853 66 359 6.1 15.6 0.00 0.00 0.00 69 969.9
20260904224433 66 359 9.6 15.6 0.00 0.00 0.00 70 969.8
20260904223953 66 327 7.8 19.1 0.00 0.00 0.00 64 969.5
20260904223503 67 338 7.8 12.2 0.00 0.00 0.00 64 969.7
20260904223028 67 338 13.0 42.6 0.00 0.00 0.00 64 969.9
20260904222603 67 338 11.3 19.1 0.00 0.00 0.00 64 969.7
20260904222123 67 338 11.3 12.2 0.00 0.00 0.00 64 969.6
20260904221648 70 330 8.7 15.6 0.00 0.00 0.00 64 969.6
20260904221218 70 0 8.7 25.2 0.00 0.00 0.00 64 969.4
20260904220758 70 0 23.5 42.6 0.00 0.00 0.00 64 968.8
20260904220353 70 359 16.5 31.3 0.00 0.00 0.00 64 968.8
20260904215938 70 343 8.7 23.5 0.00 0.00 0.00 64 968.7
20260904215504 71 312 8.7 21.7 0.00 0.00 0.00 64 968.6
20260904215103 76 354 8.7 31.3 0.00 0.00 0.00 59 968.0
20260904214603 76 319 8.7 26.9 0.00 0.00 0.00 56 968.0
20260904214113 76 319 8.7 21.7 0.00 0.00 0.00 56 967.2
20260904213634 76 319 8.7 20.0 0.00 0.00 0.00 56 967.2
20260904213158 76 319 6.1 19.1 0.00 0.00 0.00 56 967.0
20260904212729 76 306 10.4 15.6 0.00 0.00 0.00 56 967.1
20260904212243 76 306 10.4 20.0 0.00 0.00 0.00 56 966.9
20260904211818 76 341 9.6 17.4 0.00 0.00 0.00 56 967.0
20260904211348 75 341 9.6 17.4 0.00 0.00 0.00 56 967.0
20260904210918 75 341 6.1 15.6 0.00 0.00 0.00 56 966.7
20260904210443 75 341 13.0 17.4 0.00 0.00 0.00 56 966.7
20260904205953 75 341 2.6 11.3 0.00 0.00 0.00 56 967.1
20260904205518 75 341 2.6 9.6 0.00 0.00 0.00 56 967.1
20260904205048 75 341 5.2 7.8 0.00 0.00 0.00 56 966.7
20260904204608 75 300 4.3 7.8 0.00 0.00 0.00 56 966.9
20260904204148 75 253 3.5 4.3 0.00 0.00 0.00 56 966.6
20260904203708 75 253 3.5 9.6 0.00 0.00 0.00 56 966.9
20260904203248 75 130 5.2 9.6 0.00 0.00 0.00 56 966.8
20260904202838 75 270 0.0 9.6 0.00 0.00 0.00 56 966.8
20260904202403 75 270 1.7 4.3 0.00 0.00 0.00 56 966.9
20260904201943 75 339 0.9 4.3 0.00 0.00 0.00 56 966.6
20260904201518 75 339 0.9 4.3 0.00 0.00 0.00 56 966.5
20260904201049 75 339 2.6 2.6 0.00 0.00 0.00 56 966.6
20260904200638 75 339 2.6 4.3 0.00 0.00 0.00 56 966.7
20260904200203 75 339 2.6 9.6 0.00 0.00 0.00 56 966.5
20260904195738 75 339 2.6 6.1 0.00 0.00 0.00 56 966.7
20260904195328 75 339 2.6 7.8 0.00 0.00 0.00 56 966.5
20260904194853 75 339 4.3 6.1 0.00 0.00 0.00 56 966.3
20260904194418 75 339 4.3 2.6 0.00 0.00 0.00 56 966.6
20260904193953 75 339 4.3 4.3 0.00 0.00 0.00 56 966.5
20260904193518 75 339 4.3 6.1 0.00 0.00 0.00 56 966.3
20260904193058 74 251 0.9 6.1 0.00 0.00 0.00 52 966.4
20260904192612 74 133 1.7 6.1 0.00 0.00 0.00 52 966.5
20260904192119 74 133 0.0 2.6 0.00 0.00 0.00 52 966.2
20260904191643 74 133 4.3 2.6 0.00 0.00 0.00 52 966.5
20260904191218 75 133 1.7 2.6 0.00 0.00 0.00 52 966.3
20260904190727 75 133 1.7 0.0 0.00 0.00 0.00 52 966.3
20260904190253 75 133 1.7 0.9 0.00 0.00 0.00 52 966.3
20260904185843 75 24 1.7 0.9 0.00 0.00 0.00 52 966.3
20260904185423 75 24 1.7 2.6 0.00 0.00 0.00 52 966.3
20260904184938 75 24 0.0 0.0 0.00 0.00 0.00 52 966.2
20260904184458 75 24 0.0 0.9 0.00 0.00 0.00 52 966.3
20260904184039 77 24 0.9 0.9 0.00 0.00 0.00 52 966.4
20260904183558 77 0 0.0 0.0 0.00 0.00 0.00 52 966.1
20260904183123 77 0 2.6 0.0 0.00 0.00 0.00 52 966.2
20260904182708 77 251 1.7 2.6 0.00 0.00 0.00 52 966.0
20260904182213 77 259 0.0 2.6 0.00 0.00 0.00 52 966.2
20260904181748 77 259 0.9 4.3 0.00 0.00 0.00 52 965.9
20260904181313 77 259 1.7 2.6 0.00 0.00 0.00 52 966.0
20260904180843 77 259 1.7 2.6 0.00 0.00 0.00 52 965.8
20260904180413 77 259 1.7 7.8 0.00 0.00 0.00 52 965.9
20260904175943 77 259 0.0 2.6 0.00 0.00 0.00 52 966.0
20260904175502 79 290 0.9 0.9 0.00 0.00 0.00 52 965.8
20260904175038 79 290 0.9 2.6 0.00 0.00 0.00 49 965.8
20260904174558 79 290 3.5 6.1 0.00 0.00 0.00 49 965.8
20260904174118 79 290 4.3 6.1 0.00 0.00 0.00 49 965.6
20260904173653 79 290 0.0 6.1 0.00 0.00 0.00 49 965.9
20260904173233 79 290 0.0 4.3 0.00 0.00 0.00 49 965.8
20260904172813 79 166 4.3 11.3 0.00 0.00 0.00 49 966.0
20260904172333 79 166 3.5 11.3 0.00 0.00 0.00 49 965.9
20260904171908 79 166 3.5 7.8 0.00 0.00 0.00 49 965.8
20260904171443 79 253 2.6 9.6 0.00 0.00 0.00 45 966.0
20260904171028 80 253 2.6 9.6 0.00 0.00 0.00 45 966.1
20260904170553 80 274 2.6 15.6 0.00 0.00 0.00 45 965.9
20260904170108 80 337 6.1 6.1 0.00 0.00 0.00 45 966.1
20260904165639 80 334 0.9 6.1 0.00 0.00 0.00 45 966.2
20260904165158 80 257 1.7 7.8 0.00 0.00 0.00 45 966.0
20260904164723 80 257 6.1 7.8 0.00 0.00 0.00 45 966.1
20260904164253 80 301 6.1 6.1 0.00 0.00 0.00 45 966.4
20260904163809 80 301 4.3 12.2 0.00 0.00 0.00 45 966.3
20260904163327 80 301 4.3 7.8 0.00 0.00 0.00 45 966.2
20260904162838 80 301 1.7 12.2 0.00 0.00 0.00 45 966.2
20260904162353 80 301 1.7 12.2 0.00 0.00 0.00 45 966.3
20260904161928 82 292 1.7 17.4 0.00 0.00 0.00 45 966.4
20260904161453 82 333 1.7 12.2 0.00 0.00 0.00 45 965.9
20260904161038 82 333 3.5 12.2 0.00 0.00 0.00 45 966.3
20260904160543 82 137 3.5 7.8 0.00 0.00 0.00 45 966.1
20260904160113 82 117 3.5 13.9 0.00 0.00 0.00 45 966.1
20260904155633 82 117 15.6 21.7 0.00 0.00 0.00 45 966.1
20260904155158 82 316 7.0 11.3 0.00 0.00 0.00 45 966.1
20260904154711 82 350 5.2 7.8 0.00 0.00 0.00 43 966.1
20260904154228 82 292 5.2 19.1 0.00 0.00 0.00 43 965.9
20260904153813 82 281 3.5 12.2 0.00 0.00 0.00 43 966.0
20260904153323 82 281 11.3 19.1 0.00 0.00 0.00 44 965.9
20260904152824 82 84 7.0 19.1 0.00 0.00 0.00 44 966.0
20260904152418 81 84 10.4 9.6 0.00 0.00 0.00 44 966.1
20260904151953 81 7 9.6 11.3 0.00 0.00 0.00 44 965.8
20260904151513 81 337 6.1 21.7 0.00 0.00 0.00 44 965.7
20260904151103 81 161 9.6 13.9 0.00 0.00 0.00 44 966.1
20260904150633 81 351 6.1 13.9 0.00 0.00 0.00 44 966.0
20260904150218 83 241 7.0 11.3 0.00 0.00 0.00 44 966.0
20260904145738 82 241 6.1 7.8 0.00 0.00 0.00 44 966.1
20260904145309 82 2 6.1 23.5 0.00 0.00 0.00 44 965.9
20260904144843 82 186 2.6 9.6 0.00 0.00 0.00 44 966.0
20260904144411 82 103 7.0 17.4 0.00 0.00 0.00 44 966.2
20260904143928 82 56 12.2 6.1 0.00 0.00 0.00 44 966.2
20260904143448 82 314 7.8 6.1 0.00 0.00 0.00 44 966.2
20260904142958 82 326 4.3 6.1 0.00 0.00 0.00 44 966.3
20260904142528 81 326 3.5 21.7 0.00 0.00 0.00 44 966.5
20260904142113 81 313 4.3 19.1 0.00 0.00 0.00 44 966.5
20260904141648 81 139 4.3 21.7 0.00 0.00 0.00 44 966.5
20260904141208 81 139 0.9 12.2 0.00 0.00 0.00 45 966.6
20260904140738 81 304 13.9 7.8 0.00 0.00 0.00 49 966.7
20260904140313 81 182 13.9 13.9 0.00 0.00 0.00 49 966.7
20260904135828 81 302 13.9 13.9 0.00 0.00 0.00 49 966.9
20260904135353 82 68 3.5 7.8 0.00 0.00 0.00 49 967.0
20260904134933 82 187 0.9 7.8 0.00 0.00 0.00 49 966.9
20260904134508 80 238 5.2 28.7 0.00 0.00 0.00 49 966.9
20260904134108 80 238 8.7 28.7 0.00 0.00 0.00 49 967.2
20260904133623 79 175 8.7 15.6 0.00 0.00 0.00 49 967.1
20260904133203 80 305 4.3 15.6 0.00 0.00 0.00 47 967.0
20260904132733 80 105 6.1 15.6 0.00 0.00 0.00 47 967.1
20260904132258 81 340 4.3 13.9 0.00 0.00 0.00 48 967.1
20260904131759 81 182 6.1 12.2 0.00 0.00 0.00 47 967.2
20260904131333 80 332 6.1 17.4 0.00 0.00 0.00 47 967.2
20260904130853 80 303 3.5 17.4 0.00 0.00 0.00 47 967.1
20260904130443 80 231 4.3 12.2 0.00 0.00 0.00 47 967.2
20260904130028 79 234 7.8 21.7 0.00 0.00 0.00 48 967.4
20260904125608 79 291 12.2 13.9 0.00 0.00 0.00 49 967.4
20260904125133 80 344 12.2 23.5 0.00 0.00 0.00 50 967.5
20260904124639 80 308 12.2 19.1 0.00 0.00 0.00 50 967.7
20260904124218 79 319 6.1 12.2 0.00 0.00 0.00 50 967.6
20260904123743 79 110 6.1 19.1 0.00 0.00 0.00 50 968.0
20260904123318 78 110 9.6 25.2 0.00 0.00 0.00 50 968.1
20260904122858 78 318 9.6 13.9 0.00 0.00 0.00 50 968.2
20260904122428 80 322 9.6 17.4 0.00 0.00 0.00 50 968.5
20260904121953 78 317 3.5 4.3 0.00 0.00 0.00 50 968.3
20260904121525 78 331 3.5 15.6 0.00 0.00 0.00 50 968.5
20260904121118 78 331 3.5 13.9 0.00 0.00 0.00 52 968.5
20260904120638 77 304 5.2 4.3 0.00 0.00 0.00 52 968.5
20260904120148 78 125 5.2 21.7 0.00 0.00 0.00 52 968.7
20260904115728 78 125 5.2 17.4 0.00 0.00 0.00 55 968.6
20260904115308 77 257 7.8 20.0 0.00 0.00 0.00 55 968.6
20260904114903 77 257 6.1 11.3 0.00 0.00 0.00 55 968.6
20260904114413 78 257 8.7 12.2 0.00 0.00 0.00 55 968.9
20260904113958 78 257 7.8 26.9 0.00 0.00 0.00 55 968.8
20260904113533 76 283 7.8 7.8 0.00 0.00 0.00 55 968.9
20260904113038 76 251 7.8 19.1 0.00 0.00 0.00 55 968.9
20260904112619 76 288 12.2 26.9 0.00 0.00 0.00 58 968.8
20260904112158 76 327 4.3 12.2 0.00 0.00 0.00 58 968.9
20260904111718 77 343 4.3 17.4 0.00 0.00 0.00 58 968.9
20260904111243 76 343 4.3 2.6 0.00 0.00 0.00 58 969.0
20260904110758 76 343 7.8 11.3 0.00 0.00 0.00 58 969.2
20260904110333 76 178 7.8 7.8 0.00 0.00 0.00 58 969.2
20260904105848 75 95 4.3 13.9 0.00 0.00 0.00 58 969.2
20260904105413 75 111 12.2 9.6 0.00 0.00 0.00 58 969.1
20260904104933 76 111 2.6 9.6 0.00 0.00 0.00 58 969.2
20260904104518 76 127 7.8 21.7 0.00 0.00 0.00 58 969.3
20260904104033 76 197 7.8 9.6 0.00 0.00 0.00 58 969.3
20260904103628 76 146 7.8 12.2 0.00 0.00 0.00 62 969.1
20260904103153 75 146 2.6 9.6 0.00 0.00 0.00 62 969.2
20260904102728 74 343 2.6 12.2 0.00 0.00 0.00 62 969.6
20260904102253 74 343 4.3 15.6 0.00 0.00 0.00 62 969.6
20260904101823 74 337 8.7 12.2 0.00 0.00 0.00 62 969.5
20260904101343 74 156 6.1 19.1 0.00 0.00 0.00 63 969.7
20260904100923 72 137 4.3 19.1 0.00 0.00 0.00 63 969.8
20260904100458 72 175 5.2 15.6 0.00 0.00 0.00 66 969.8
20260904100028 72 315 4.3 17.4 0.00 0.00 0.00 66 970.1
20260904095548 73 308 6.1 12.2 0.00 0.00 0.00 66 970.1
20260904095113 73 308 8.7 13.9 0.00 0.00 0.00 67 970.1
20260904094643 73 330 5.2 19.1 0.00 0.00 0.00 67 970.2
20260904094208 74 330 3.5 7.8 0.00 0.00 0.00 67 970.0
20260904093733 71 330 3.5 11.3 0.00 0.00 0.00 67 970.5
20260904093303 71 39 7.8 20.0 0.00 0.00 0.00 67 970.3
20260904092838 71 292 7.8 17.4 0.00 0.00 0.00 67 970.5
20260904092353 72 292 7.8 17.4 0.00 0.00 0.00 67 970.5
20260904091933 72 292 4.3 19.1 0.00 0.00 0.00 69 970.5
20260904091523 69 147 4.3 12.2 0.00 0.00 0.00 69 970.6
20260904091103 69 318 1.7 15.6 0.00 0.00 0.00 69 970.8
20260904090633 69 351 7.8 9.6 0.00 0.00 0.00 75 970.8
20260904090208 69 10 7.8 13.9 0.00 0.00 0.00 75 970.7
20260904085713 69 249 3.5 7.8 0.00 0.00 0.00 75 970.8
20260904085308 69 161 1.7 7.8 0.00 0.00 0.00 75 970.7
20260904084843 68 161 4.3 7.8 0.00 0.00 0.00 75 970.9
20260904084358 68 198 2.6 2.6 0.00 0.00 0.00 75 970.9
20260904083948 68 143 1.7 12.2 0.00 0.00 0.00 75 971.1
20260904083528 68 175 1.7 4.3 0.00 0.00 0.00 75 971.0
20260904083058 67 175 1.7 6.1 0.00 0.00 0.00 75 971.0
20260904082613 67 138 1.7 2.6 0.00 0.00 0.00 79 971.1
20260904082128 67 38 1.7 4.3 0.00 0.00 0.00 79 971.2
20260904081648 67 38 4.3 4.3 0.00 0.00 0.00 79 971.2
20260904081219 67 340 0.9 0.9 0.00 0.00 0.00 79 971.2
20260904080748 67 340 0.9 6.1 0.00 0.00 0.00 79 971.3
20260904080333 67 340 4.3 6.1 0.00 0.00 0.00 79 971.5
20260904075908 67 103 0.9 4.3 0.00 0.00 0.00 79 971.3
20260904075449 67 103 0.9 9.6 0.00 0.00 0.00 79 971.4
20260904075003 66 103 0.9 2.6 0.00 0.00 0.00 79 971.5
20260904074528 66 103 0.9 6.1 0.00 0.00 0.00 79 971.6
20260904074059 66 103 0.9 0.9 0.00 0.00 0.00 79 971.5
20260904073618 66 325 0.9 6.1 0.00 0.00 0.00 79 971.7
20260904073153 66 352 0.0 6.1 0.00 0.00 0.00 79 971.5
20260904072728 66 171 1.7 7.8 0.00 0.00 0.00 80 971.7
20260904072313 66 289 3.5 4.3 0.00 0.00 0.00 80 971.6
20260904071843 65 289 2.6 9.6 0.00 0.00 0.00 81 971.7
20260904071413 65 289 3.5 9.6 0.00 0.00 0.00 81 971.5
20260904070958 65 349 3.5 6.1 0.00 0.00 0.00 81 971.8
20260904070533 65 146 2.6 6.1 0.00 0.00 0.00 81 971.7
20260904070058 65 259 1.7 4.3 0.00 0.00 0.00 81 971.7
20260904065619 65 259 0.0 2.6 0.00 0.00 0.00 81 971.6
20260904065153 64 259 0.0 2.6 0.00 0.00 0.00 81 971.6
20260904064718 64 310 0.9 2.6 0.00 0.00 0.00 81 971.7
20260904064238 64 242 0.9 4.3 0.00 0.00 0.00 81 971.6
20260904063813 62 196 1.7 4.3 0.00 0.00 0.00 81 971.6
20260904063348 62 196 1.7 2.6 0.00 0.00 0.00 82 971.7
20260904062908 62 196 1.7 2.6 0.00 0.00 0.00 85 971.6
20260904062418 62 196 1.7 2.6 0.00 0.00 0.00 85 971.7
20260904061958 61 4 0.9 4.3 0.00 0.00 0.00 85 971.5
20260904061553 61 4 0.0 0.0 0.00 0.00 0.00 85 971.9